DW8167 Weather Reports


time (UTC)temp
F
wind
direction
speed
knots
gust
knots
rain 1hr
in
rain 24hr
in
rain mn
in
humidity
%
barometer
mb
20260906125555 79 358 0.0 0.0 0.00 0.00 0.00 94 1013.7
20260906125054 79 358 0.0 0.0 0.00 0.00 0.00 95 1013.4
20260906124550 79 358 0.0 0.0 0.00 0.00 0.00 95 1013.3
20260906124045 78 358 0.0 0.0 0.00 0.00 0.00 96 1013.2
20260906123544 78 353 0.0 0.0 0.00 0.00 0.00 98 1013.1
20260906123039 78 352 0.0 0.0 0.00 0.00 0.00 99 1013.1
20260906122533 78 359 0.0 0.0 0.00 0.00 0.00 99 1013.1
20260906122030 78 358 0.0 0.0 0.00 0.00 0.00 99 1013.0
20260906121525 77 359 0.0 0.0 0.00 0.00 0.00 99 1013.1
20260906121022 77 359 0.0 0.0 0.00 0.00 0.00 99 1012.9
20260906120522 77 359 0.0 0.0 0.00 0.00 0.00 99 1013.3
20260906120019 77 359 0.0 0.0 0.00 0.00 0.00 99 1013.3
20260906115514 77 0 0.0 0.0 0.00 0.00 0.00 99 1013.2
20260906115008 77 0 0.0 0.0 0.00 0.00 0.00 99 1013.1
20260906114502 77 357 0.0 0.0 0.00 0.00 0.00 99 1013.1
20260906113958 77 355 0.0 0.0 0.00 0.00 0.00 99 1013.1
20260906113457 77 0 0.0 0.0 0.00 0.00 0.00 99 1013.0
20260906112952 77 0 0.0 0.0 0.00 0.00 0.00 99 1013.0
20260906112448 77 0 0.0 0.0 0.00 0.00 0.00 99 1013.0
20260906111943 77 0 0.0 0.0 0.00 0.00 0.00 99 1013.1
20260906111442 77 0 0.0 0.0 0.00 0.00 0.00 99 1013.2
20260906110938 77 0 0.0 0.0 0.00 0.00 0.00 99 1013.1
20260906110433 77 0 0.0 0.0 0.00 0.00 0.00 99 1013.1
20260906105932 77 0 0.0 0.0 0.00 0.00 0.00 99 1013.1
20260906105428 77 0 0.0 0.0 0.00 0.00 0.00 99 1013.2
20260906104924 77 0 0.0 0.0 0.00 0.00 0.00 99 1013.2
20260906104421 77 0 0.0 0.0 0.00 0.00 0.00 99 1013.2
20260906103916 77 0 0.0 0.0 0.00 0.00 0.00 99 1013.2
20260906103414 77 0 0.0 0.0 0.00 0.00 0.00 99 1013.5
20260906102910 77 0 0.0 0.0 0.00 0.00 0.00 99 1013.4
20260906102409 77 0 0.0 0.0 0.00 0.00 0.00 99 1013.4
20260906101904 77 1 0.0 0.0 0.00 0.00 0.00 99 1013.6
20260906101359 77 1 0.0 0.0 0.00 0.00 0.00 99 1013.3
20260906100855 77 1 0.0 0.0 0.00 0.00 0.00 99 1013.3
20260906100354 77 2 0.0 0.0 0.00 0.00 0.00 99 1013.2
20260906095849 78 0 0.0 1.7 0.00 0.00 0.00 99 1012.8
20260906095344 78 356 0.0 0.0 0.00 0.00 0.00 99 1012.6
20260906094843 78 351 0.0 0.0 0.00 0.00 0.00 99 1012.6
20260906094338 78 351 0.0 0.0 0.00 0.00 0.00 99 1012.5
20260906093830 78 351 0.0 0.0 0.00 0.00 0.00 99 1012.5
20260906093325 78 350 0.0 0.0 0.00 0.00 0.00 98 1012.6
20260906092819 78 349 0.0 1.7 0.00 0.00 0.00 98 1012.6
20260906092314 78 350 0.0 0.0 0.00 0.00 0.00 99 1012.4
20260906091809 78 351 0.0 0.0 0.00 0.00 0.00 99 1012.5
20260906091305 78 3 0.0 0.0 0.00 0.00 0.00 99 1012.4
20260906090802 78 3 0.0 0.0 0.00 0.00 0.00 99 1012.1
20260906090301 78 3 0.0 0.0 0.00 0.00 0.00 99 1012.3
20260906085800 78 3 0.0 0.0 0.00 0.00 0.00 99 1012.3
20260906085253 78 3 0.0 0.0 0.00 0.00 0.00 99 1012.8
20260906084748 78 3 0.0 0.0 0.00 0.00 0.00 99 1012.4
20260906084242 78 3 0.0 0.0 0.00 0.00 0.00 99 1012.4
20260906083737 78 3 0.0 0.0 0.00 0.00 0.00 99 1012.5
20260906083233 78 3 0.0 0.0 0.00 0.00 0.00 99 1012.5
20260906082728 78 3 0.0 0.0 0.00 0.00 0.00 99 1012.5
20260906082223 78 3 0.0 0.0 0.00 0.00 0.00 99 1012.6
20260906081719 78 3 0.0 0.0 0.00 0.00 0.00 99 1012.8
20260906081219 78 3 0.0 0.0 0.00 0.00 0.00 99 1012.5
20260906080715 78 3 0.0 0.0 0.00 0.00 0.00 99 1012.7
20260906080211 78 3 0.0 0.0 0.00 0.00 0.00 99 1012.5
20260906075706 78 3 0.0 0.0 0.00 0.00 0.00 99 1012.2
20260906075201 78 3 0.0 0.0 0.00 0.00 0.00 99 1012.4
20260906074656 78 3 0.0 0.0 0.00 0.00 0.00 99 1012.4
20260906074154 78 3 0.0 0.0 0.00 0.00 0.00 99 1012.3
20260906073649 78 3 0.0 0.0 0.00 0.00 0.00 99 1012.4
20260906073140 78 9 2.6 3.5 0.00 0.00 0.00 99 1012.3
20260906072635 78 5 0.0 0.0 0.00 0.00 0.00 99 1012.2
20260906072130 78 6 0.0 1.7 0.00 0.00 0.00 99 1012.3
20260906071627 78 5 0.0 0.0 0.00 0.00 0.00 99 1012.4
20260906071126 78 5 0.0 0.0 0.00 0.00 0.00 99 1012.5
20260906070623 78 5 0.0 0.0 0.00 0.00 0.00 99 1012.3
20260906070119 78 5 0.0 0.0 0.00 0.00 0.00 99 1012.3
20260906065618 78 5 0.0 0.0 0.00 0.00 0.00 99 1012.5
20260906065114 78 5 0.0 0.0 0.00 0.00 0.00 99 1012.5
20260906064609 78 5 0.0 0.0 0.00 0.00 0.00 99 1012.4
20260906064104 78 5 0.0 0.0 0.00 0.00 0.00 99 1012.4
20260906063559 78 5 0.0 0.0 0.00 0.00 0.00 99 1012.4
20260906063055 78 5 0.0 0.0 0.00 0.00 0.00 99 1012.6
20260906062551 78 5 0.0 0.0 0.00 0.00 0.00 99 1012.6
20260906062044 78 5 0.0 0.0 0.00 0.00 0.00 98 1012.7
20260906061541 78 5 0.0 0.0 0.00 0.00 0.00 99 1012.5
20260906061040 78 5 0.0 0.0 0.00 0.00 0.00 99 1012.7
20260906060537 78 5 0.0 0.0 0.00 0.00 0.00 98 1012.9
20260906060034 78 5 0.0 0.0 0.00 0.00 0.00 98 1012.9
20260906055529 78 5 0.0 0.0 0.00 0.00 0.00 98 1012.9
20260906055024 78 5 0.0 0.0 0.00 0.00 0.00 98 1012.7
20260906054524 78 5 0.0 0.0 0.00 0.00 0.00 98 1013.0
20260906054020 79 5 0.0 0.0 0.00 0.00 0.00 97 1013.0
20260906053516 79 5 0.0 0.0 0.00 0.00 0.00 97 1013.0
20260906053011 79 5 0.0 0.0 0.00 0.00 0.00 96 1013.3
20260906052507 79 5 0.0 0.0 0.00 0.00 0.00 97 1013.2
20260906052004 79 5 0.0 0.0 0.00 0.00 0.00 97 1013.2
20260906051459 79 5 0.0 0.0 0.00 0.00 0.00 97 1013.3
20260906050954 79 5 0.0 0.0 0.00 0.00 0.00 96 1013.3
20260906050454 79 6 0.0 0.0 0.00 0.00 0.00 96 1013.5
20260906045948 79 6 0.0 0.0 0.00 0.00 0.00 96 1013.1
20260906045447 79 6 0.0 0.0 0.00 0.00 0.00 96 1013.1
20260906044943 79 4 0.0 0.0 0.00 0.00 0.00 96 1013.4
20260906044437 80 4 0.0 0.0 0.00 0.00 0.00 95 1013.2
20260906043927 80 5 0.0 0.0 0.00 0.00 0.00 95 1013.4
20260906043423 80 4 0.0 0.0 0.00 0.00 0.00 95 1013.3
20260906042919 80 4 0.0 0.0 0.00 0.00 0.00 95 1013.5
20260906042418 80 4 0.0 0.0 0.00 0.00 0.00 95 1013.2
20260906041913 80 4 0.0 0.0 0.00 0.00 0.00 94 1013.3
20260906041409 80 4 0.0 0.0 0.00 0.00 0.00 94 1013.3
20260906040908 80 1 0.0 0.0 0.00 0.00 0.00 94 1013.2
20260906040404 80 0 0.0 0.0 0.00 0.00 0.00 94 1013.2
20260906035859 80 0 0.0 0.0 0.00 0.00 0.00 94 1013.4
20260906035354 80 0 0.0 0.0 0.00 0.00 0.00 94 1013.3
20260906034849 80 0 0.0 0.0 0.00 0.00 0.00 94 1013.1
20260906034344 80 0 0.0 0.0 0.00 0.00 0.00 94 1013.2
20260906033840 80 0 0.0 0.0 0.00 0.00 0.00 94 1013.1
20260906033339 80 0 0.0 0.0 0.00 0.00 0.00 94 1013.2
20260906032836 80 1 0.0 0.0 0.00 0.00 0.00 94 1013.3
20260906032331 80 1 0.0 0.0 0.00 0.00 0.00 94 1013.4
20260906031826 80 1 0.0 0.0 0.00 0.00 0.00 94 1013.5
20260906031322 80 1 0.0 0.0 0.00 0.00 0.00 94 1013.5
20260906030822 81 1 0.0 0.0 0.00 0.00 0.00 93 1013.4
20260906030317 81 1 0.0 0.0 0.00 0.00 0.00 93 1013.2
20260906025816 81 1 0.0 0.0 0.00 0.00 0.00 92 1013.2
20260906025306 81 1 0.0 0.0 0.00 0.00 0.00 92 1013.2
20260906024804 81 0 0.0 0.0 0.00 0.00 0.00 92 1012.9
20260906024303 81 0 0.0 0.0 0.00 0.00 0.00 91 1013.0
20260906023759 81 0 0.0 0.0 0.00 0.00 0.00 91 1013.0
20260906023254 81 0 0.0 0.0 0.00 0.00 0.00 91 1013.2
20260906022750 82 0 0.0 0.0 0.00 0.00 0.00 91 1013.2
20260906022245 82 0 0.0 0.0 0.00 0.00 0.00 90 1013.0
20260906021741 82 0 0.0 0.0 0.00 0.00 0.00 90 1012.9
20260906021240 82 355 0.0 0.0 0.00 0.00 0.00 90 1012.9
20260906020734 82 355 0.0 0.0 0.00 0.00 0.00 89 1013.0
20260906020229 82 356 0.0 0.0 0.00 0.00 0.00 89 1012.9
20260906015724 82 355 0.0 0.0 0.00 0.00 0.00 89 1013.0
20260906015222 82 355 0.0 0.0 0.00 0.00 0.00 88 1012.9
20260906014716 83 355 0.0 0.0 0.00 0.00 0.00 88 1012.7
20260906014213 83 355 0.0 0.0 0.00 0.00 0.00 88 1012.6
20260906013709 83 355 0.0 0.0 0.00 0.00 0.00 87 1012.7
20260906013208 84 355 0.0 0.0 0.00 0.00 0.00 87 1012.4
20260906012703 84 355 0.0 0.0 0.00 0.00 0.00 85 1012.3
20260906012157 84 348 0.0 0.0 0.00 0.00 0.00 85 1011.9
20260906011654 84 347 0.0 0.0 0.00 0.00 0.00 85 1011.9
20260906011148 84 9 0.0 0.0 0.00 0.00 0.00 85 1012.0
20260906010644 84 347 0.0 0.0 0.00 0.00 0.00 84 1011.8
20260906010140 85 352 0.0 3.5 0.00 0.00 0.00 84 1011.7
20260906005639 85 330 0.0 0.0 0.00 0.00 0.00 84 1011.6
20260906005138 85 350 0.0 0.0 0.00 0.00 0.00 84 1011.7
20260906004638 85 340 0.0 0.0 0.00 0.00 0.00 84 1011.4
20260906004133 85 351 0.0 5.2 0.00 0.00 0.00 83 1011.6
20260906003628 86 350 0.0 3.5 0.00 0.00 0.00 83 1011.8
20260906003124 86 349 0.9 3.5 0.00 0.00 0.00 82 1011.6
20260906002619 86 342 0.0 0.0 0.00 0.00 0.00 82 1011.7
20260906002113 87 332 1.7 3.5 0.00 0.00 0.00 82 1011.7
20260906001608 87 359 0.9 3.5 0.00 0.00 0.00 80 1011.7
20260906001103 87 337 0.0 0.0 0.00 0.00 0.00 80 1011.8
20260906000559 87 346 0.0 1.7 0.00 0.00 0.00 79 1011.7
20260906000054 88 318 4.3 5.2 0.00 0.00 0.00 80 1011.6
20260905235553 88 343 1.7 1.7 0.00 0.00 0.00 78 1011.7
20260905235048 88 355 0.0 5.2 0.00 0.00 0.00 76 1011.8
20260905234543 88 318 1.7 5.2 0.00 0.00 0.00 76 1011.7
20260905234038 88 333 0.0 3.5 0.00 0.00 0.00 75 1011.6
20260905233532 89 319 3.5 3.5 0.00 0.00 0.00 75 1011.7
20260905233027 89 309 3.5 7.0 0.00 0.00 0.00 74 1011.8
20260905232522 89 338 1.7 3.5 0.00 0.00 0.00 74 1011.7
20260905232018 90 306 2.6 5.2 0.00 0.00 0.00 72 1011.4
20260905231513 90 347 0.0 0.0 0.00 0.00 0.00 72 1011.6
20260905231010 90 334 1.7 1.7 0.00 0.00 0.00 72 1011.4
20260905230508 90 320 0.9 3.5 0.00 0.00 0.00 72 1011.4
20260905230007 90 344 1.7 7.0 0.00 0.00 0.00 71 1011.7
20260905225502 91 333 2.6 5.2 0.00 0.00 0.00 71 1011.2
20260905224957 91 324 0.0 1.7 0.00 0.00 0.00 70 1011.0
20260905224452 91 325 1.7 3.5 0.00 0.00 0.00 70 1011.2
20260905223951 91 306 1.7 5.2 0.00 0.00 0.00 69 1011.0
20260905223449 93 349 0.0 1.7 0.00 0.00 0.00 68 1011.2
20260905222944 93 304 4.3 7.0 0.00 0.00 0.00 68 1011.0
20260905222444 93 358 0.0 1.7 0.00 0.00 0.00 67 1011.1
20260905221939 93 282 3.5 7.0 0.00 0.00 0.00 66 1011.1
20260905221436 93 356 0.0 3.5 0.00 0.00 0.00 67 1011.1
20260905220932 93 350 0.0 1.7 0.00 0.00 0.00 67 1011.2
20260905220428 93 334 1.7 3.5 0.00 0.00 0.00 66 1011.1
20260905215927 94 349 0.0 1.7 0.00 0.00 0.00 65 1011.1
20260905215422 94 22 0.9 1.7 0.00 0.00 0.00 65 1011.1
20260905214919 94 328 0.0 1.7 0.00 0.00 0.00 65 1011.1
20260905214414 94 314 0.9 3.5 0.00 0.00 0.00 65 1011.3
20260905213908 94 354 0.0 3.5 0.00 0.00 0.00 64 1011.3
20260905213405 94 327 1.7 3.5 0.00 0.00 0.00 64 1011.3
20260905212900 94 328 1.7 12.2 0.00 0.00 0.00 64 1011.4
20260905212400 94 342 1.7 3.5 0.00 0.00 0.00 64 1011.4
20260905211854 94 309 3.5 5.2 0.00 0.00 0.00 64 1011.4
20260905211349 95 356 3.5 7.0 0.00 0.00 0.00 64 1011.6
20260905210840 95 343 1.7 3.5 0.00 0.00 0.00 62 1011.4
20260905210340 95 346 1.7 3.5 0.00 0.00 0.00 61 1011.2
20260905205838 95 354 0.9 1.7 0.00 0.00 0.00 63 1011.3
20260905205332 95 328 0.0 0.0 0.00 0.00 0.00 62 1011.7
20260905204827 96 297 5.2 5.2 0.00 0.00 0.00 60 1011.6
20260905204323 96 332 3.5 3.5 0.00 0.00 0.00 59 1011.4
20260905203821 96 307 2.6 3.5 0.00 0.00 0.00 59 1011.6
20260905203318 96 275 3.5 5.2 0.00 0.00 0.00 59 1011.9
20260905202813 97 305 3.5 5.2 0.00 0.00 0.00 57 1011.7
20260905202308 97 340 1.7 3.5 0.00 0.00 0.00 59 1011.7
20260905201803 97 322 2.6 5.2 0.00 0.00 0.00 59 1012.0
20260905201259 98 349 0.9 3.5 0.00 0.00 0.00 56 1012.0
20260905200753 97 332 0.0 0.0 0.00 0.00 0.00 59 1012.1
20260905200249 97 352 1.7 3.5 0.00 0.00 0.00 59 1012.1
20260905195747 96 12 1.7 5.2 0.00 0.00 0.00 60 1012.0
20260905195242 97 310 1.7 3.5 0.00 0.00 0.00 60 1012.1
20260905194738 96 314 2.6 7.0 0.00 0.00 0.00 63 1012.0
20260905194237 95 297 5.2 7.0 0.00 0.00 0.00 62 1012.1
20260905193737 96 312 4.3 7.0 0.00 0.00 0.00 63 1012.3
20260905193232 95 315 3.5 7.0 0.00 0.00 0.00 64 1012.5
20260905192727 96 334 3.5 8.7 0.00 0.00 0.00 62 1012.3
20260905192224 95 16 0.0 1.7 0.00 0.00 0.00 65 1012.3
20260905191723 95 327 3.5 5.2 0.00 0.00 0.00 64 1012.6
20260905191221 95 353 1.7 8.7 0.00 0.00 0.00 65 1012.5
20260905190720 95 297 4.3 8.7 0.00 0.00 0.00 66 1012.7
20260905190219 95 342 2.6 3.5 0.00 0.00 0.00 65 1012.8
20260905185718 94 330 2.6 5.2 0.00 0.00 0.00 67 1013.0
20260905185213 94 335 2.6 5.2 0.00 0.00 0.00 69 1013.0
20260905184707 94 314 6.1 8.7 0.00 0.00 0.00 68 1012.9
20260905184206 94 357 0.0 7.0 0.00 0.00 0.00 67 1013.0
20260905183700 93 256 6.1 7.0 0.00 0.00 0.00 68 1012.8
20260905183155 93 298 3.5 7.0 0.00 0.00 0.00 70 1013.3
20260905182655 91 8 1.7 5.2 0.00 0.00 0.00 71 1013.4
20260905182155 91 321 3.5 7.0 0.00 0.00 0.00 71 1013.5
20260905181650 92 354 1.7 5.2 0.00 0.00 0.00 71 1013.4
20260905181149 93 313 2.6 3.5 0.00 0.00 0.00 66 1013.6
20260905180644 97 328 2.6 5.2 0.00 0.00 0.00 62 1013.6
20260905180139 100 6 0.0 1.7 0.00 0.00 0.00 49 1013.4
20260905175638 98 2 0.0 0.0 0.00 0.00 0.00 52 1013.5
20260905175133 99 10 0.0 0.0 0.00 0.00 0.00 49 1013.6
20260905174629 99 355 0.0 1.7 0.00 0.00 0.00 53 1013.5
20260905174124 98 355 0.0 0.0 0.00 0.00 0.00 51 1013.6
20260905173621 98 20 2.6 8.7 0.00 0.00 0.00 54 1013.7
20260905173116 98 4 0.0 0.0 0.00 0.00 0.00 50 1013.7
20260905172615 98 336 0.0 0.0 0.00 0.00 0.00 53 1013.9
20260905172110 96 100 4.3 5.2 0.00 0.00 0.00 54 1013.9
20260905171607 96 351 2.6 7.0 0.00 0.00 0.00 56 1014.1
20260905171102 97 24 3.5 10.4 0.00 0.00 0.00 57 1014.0
20260905170558 97 0 0.0 0.0 0.00 0.00 0.00 54 1014.0
20260905170054 96 16 1.7 3.5 0.00 0.00 0.00 56 1014.2
20260905165548 96 355 0.0 3.5 0.00 0.00 0.00 57 1014.4
20260905165043 96 338 0.0 5.2 0.00 0.00 0.00 60 1014.3
20260905164544 95 12 1.7 5.2 0.00 0.00 0.00 60 1014.5
20260905164038 95 5 0.0 0.0 0.00 0.00 0.00 59 1014.6
20260905163534 95 354 0.0 0.0 0.00 0.00 0.00 61 1014.5
20260905163030 95 9 0.0 0.0 0.00 0.00 0.00 62 1014.8
20260905162526 95 1 1.7 3.5 0.00 0.00 0.00 62 1014.6
20260905162015 94 1 0.0 3.5 0.00 0.00 0.00 64 1014.9
20260905161515 93 357 0.0 0.0 0.00 0.00 0.00 63 1014.8
20260905161012 93 353 0.0 0.0 0.00 0.00 0.00 66 1014.8
20260905160506 92 14 0.0 3.5 0.00 0.00 0.00 66 1015.1
20260905160005 92 4 0.0 0.0 0.00 0.00 0.00 67 1014.9
20260905155500 91 1 0.0 1.7 0.00 0.00 0.00 68 1014.7
20260905154958 91 294 0.9 3.5 0.00 0.00 0.00 69 1014.7
20260905154454 91 347 3.5 3.5 0.00 0.00 0.00 71 1014.7
20260905153950 90 357 0.0 0.0 0.00 0.00 0.00 74 1014.6
20260905153446 90 3 0.0 1.7 0.00 0.00 0.00 74 1014.6
20260905152945 89 0 0.0 0.0 0.00 0.00 0.00 75 1014.6
20260905152445 89 15 0.0 0.0 0.00 0.00 0.00 76 1014.7
20260905151939 89 1 4.3 8.7 0.00 0.00 0.00 76 1014.8
20260905151435 89 7 0.0 0.0 0.00 0.00 0.00 76 1014.7
20260905150930 87 15 0.0 1.7 0.00 0.00 0.00 78 1014.5
20260905150430 87 1 0.0 0.0 0.00 0.00 0.00 79 1014.7
20260905145926 87 348 3.5 5.2 0.00 0.00 0.00 78 1014.6
20260905145421 86 2 0.0 0.0 0.00 0.00 0.00 80 1014.7
20260905144921 86 1 0.0 0.0 0.00 0.00 0.00 81 1014.9
20260905144417 85 344 0.0 0.0 0.00 0.00 0.00 81 1014.8
20260905143915 85 12 0.0 1.7 0.00 0.00 0.00 83 1015.0
20260905143410 84 356 0.0 0.0 0.00 0.00 0.00 84 1014.8
20260905142909 84 357 0.0 0.0 0.00 0.00 0.00 84 1014.9
20260905142408 84 0 0.0 0.0 0.00 0.00 0.00 85 1015.0
20260905141904 83 350 0.0 3.5 0.00 0.00 0.00 85 1015.0
20260905141359 83 354 1.7 3.5 0.00 0.00 0.00 85 1014.9
20260905140855 83 6 0.0 1.7 0.00 0.00 0.00 85 1015.1
20260905140349 83 354 0.0 0.0 0.00 0.00 0.00 87 1015.1
20260905135848 82 359 0.0 0.0 0.00 0.00 0.00 88 1015.1
20260905135344 81 355 0.0 0.0 0.00 0.00 0.00 90 1015.2
20260905134840 81 355 0.0 0.0 0.00 0.00 0.00 91 1015.0
20260905134338 80 355 0.0 0.0 0.00 0.00 0.00 92 1015.2
20260905133833 80 353 0.0 0.0 0.00 0.00 0.00 93 1014.9
20260905133328 80 359 0.0 0.0 0.00 0.00 0.00 93 1015.0
20260905132827 79 359 0.0 0.0 0.00 0.00 0.00 93 1015.1
20260905132323 79 359 0.0 0.0 0.00 0.00 0.00 94 1015.0
20260905131817 78 359 0.0 0.0 0.00 0.00 0.00 95 1015.4
20260905131313 78 359 0.0 0.0 0.00 0.00 0.00 96 1015.0
20260905130808 78 359 0.0 0.0 0.00 0.00 0.00 97 1015.1
20260905130306 77 359 0.0 0.0 0.00 0.00 0.00 98 1015.3